| time (UTC) | temp F | wind direction | speed MPH | gust MPH | rain 1hr in | rain 24hr in | rain mn in | humidity % | barometer mb |
| 20260502163036 | 53 | 5 | 0.0 | 4.0 | 0.00 | 0.00 | 0.00 | 40 | 981.1 |
| 20260502161532 | 53 | 8 | 1.0 | 5.0 | 0.00 | 0.00 | 0.00 | 38 | 981.2 |
| 20260502151526 | 52 | 4 | 5.0 | 12.0 | 0.00 | 0.00 | 0.00 | 37 | 981.7 |
| 20260502123057 | 38 | 5 | 1.0 | 3.0 | 0.00 | 0.00 | 0.00 | 70 | 981.7 |
| 20260502121600 | 38 | 10 | 0.0 | 3.0 | 0.00 | 0.00 | 0.00 | 70 | 981.5 |
| 20260502120110 | 37 | 6 | 0.0 | 4.0 | 0.00 | 0.00 | 0.00 | 70 | 981.4 |
| 20260502114600 | 36 | 6 | 0.0 | 2.0 | 0.00 | 0.00 | 0.00 | 72 | 981.2 |
| 20260502113052 | 35 | 5 | 2.0 | 3.0 | 0.00 | 0.00 | 0.00 | 74 | 981.2 |
| 20260502111557 | 35 | 6 | 0.0 | 3.0 | 0.00 | 0.00 | 0.00 | 74 | 981.0 |
| 20260502110048 | 36 | 6 | 0.0 | 3.0 | 0.00 | 0.00 | 0.00 | 69 | 980.9 |
| 20260502104550 | 38 | 6 | 0.0 | 2.0 | 0.00 | 0.00 | 0.00 | 64 | 980.9 |
| 20260502103046 | 38 | 6 | 1.0 | 3.0 | 0.00 | 0.00 | 0.00 | 63 | 980.9 |
| 20260502101547 | 38 | 6 | 0.0 | 2.0 | 0.00 | 0.00 | 0.00 | 62 | 980.8 |
| 20260502070028 | 39 | 6 | 1.0 | 4.0 | 0.00 | 0.00 | 0.00 | 63 | 980.8 |
| 20260502064526 | 39 | 6 | 1.0 | 3.0 | 0.00 | 0.00 | 0.00 | 64 | 980.8 |
| 20260502063024 | 40 | 6 | 0.0 | 3.0 | 0.00 | 0.00 | 0.00 | 64 | 980.8 |
| 20260502061523 | 40 | 6 | 0.0 | 1.0 | 0.00 | 0.00 | 0.00 | 64 | 980.8 |
| 20260502060020 | 40 | 6 | 0.0 | 2.0 | 0.00 | 0.00 | 0.00 | 63 | 980.9 |
| 20260502054520 | 41 | 6 | 2.0 | 3.0 | 0.00 | 0.00 | 0.00 | 61 | 980.8 |
| 20260502053014 | 41 | 6 | 0.0 | 3.0 | 0.00 | 0.00 | 0.00 | 62 | 980.7 |
| 20260502051527 | 41 | 6 | 0.0 | 0.0 | 0.00 | 0.00 | 0.00 | 61 | 980.6 |
| 20260502050011 | 42 | 6 | 0.0 | 0.0 | 0.00 | 0.00 | 0.00 | 60 | 980.6 |
| 20260502044507 | 43 | 6 | 0.0 | 2.0 | 0.00 | 0.00 | 0.00 | 59 | 980.5 |
| 20260502043007 | 43 | 6 | 0.0 | 0.0 | 0.00 | 0.00 | 0.00 | 59 | 980.4 |
| 20260502041507 | 43 | 6 | 0.0 | 3.0 | 0.00 | 0.00 | 0.00 | 59 | 980.3 |
| 20260502040008 | 43 | 7 | 0.0 | 0.0 | 0.00 | 0.00 | 0.00 | 59 | 980.3 |
| 20260502034506 | 43 | 7 | 0.0 | 0.0 | 0.00 | 0.00 | 0.00 | 58 | 980.4 |
| 20260502033004 | 44 | 7 | 0.0 | 0.0 | 0.00 | 0.00 | 0.00 | 57 | 980.3 |
| 20260502031503 | 44 | 7 | 0.0 | 1.0 | 0.00 | 0.00 | 0.00 | 56 | 980.2 |
| 20260502030003 | 45 | 7 | 0.0 | 0.0 | 0.00 | 0.00 | 0.00 | 55 | 980.1 |
| 20260502024501 | 46 | 360 | 0.0 | 2.0 | 0.00 | 0.00 | 0.00 | 53 | 980.0 |
| 20260502023100 | 47 | 360 | 0.0 | 4.0 | 0.00 | 0.00 | 0.00 | 53 | 979.8 |
| 20260502021559 | 47 | 360 | 0.0 | 3.0 | 0.00 | 0.00 | 0.00 | 51 | 979.6 |
| 20260502020107 | 48 | 360 | 0.0 | 4.0 | 0.00 | 0.00 | 0.00 | 52 | 979.5 |
| 20260502014556 | 49 | 360 | 0.0 | 0.0 | 0.00 | 0.00 | 0.00 | 51 | 979.2 |
| 20260502013056 | 49 | 360 | 0.0 | 3.0 | 0.00 | 0.00 | 0.00 | 50 | 979.2 |
| 20260502011553 | 50 | 360 | 0.0 | 2.0 | 0.00 | 0.00 | 0.00 | 50 | 978.9 |
| 20260502010055 | 50 | 360 | 1.0 | 7.0 | 0.00 | 0.00 | 0.00 | 50 | 978.8 |
| 20260502004550 | 51 | 360 | 1.0 | 4.0 | 0.00 | 0.00 | 0.00 | 48 | 978.6 |
| 20260502003050 | 52 | 360 | 0.0 | 5.0 | 0.00 | 0.00 | 0.00 | 49 | 978.4 |
| 20260502001549 | 52 | 360 | 2.0 | 6.0 | 0.00 | 0.00 | 0.00 | 47 | 978.1 |
| 20260502000048 | 52 | 360 | 2.0 | 7.0 | 0.00 | 0.00 | 0.00 | 47 | 978.2 |
| 20260501234553 | 52 | 360 | 0.0 | 6.0 | 0.00 | 0.00 | 0.00 | 47 | 978.3 |
| 20260501233047 | 52 | 360 | 1.0 | 5.0 | 0.00 | 0.00 | 0.00 | 49 | 978.2 |
| 20260501231556 | 53 | 360 | 2.0 | 8.0 | 0.00 | 0.00 | 0.00 | 48 | 978.2 |
| 20260501230049 | 52 | 360 | 2.0 | 6.0 | 0.00 | 0.00 | 0.00 | 48 | 978.4 |
| 20260501224545 | 53 | 360 | 1.0 | 5.0 | 0.00 | 0.00 | 0.00 | 48 | 978.2 |
| 20260501223044 | 53 | 360 | 2.0 | 9.0 | 0.00 | 0.00 | 0.00 | 47 | 978.3 |
| 20260501221544 | 54 | 6 | 2.0 | 13.0 | 0.00 | 0.00 | 0.00 | 45 | 978.2 |
| 20260501220043 | 53 | 6 | 2.0 | 11.0 | 0.00 | 0.00 | 0.00 | 49 | 978.2 |
| 20260501214555 | 52 | 360 | 4.0 | 11.0 | 0.00 | 0.00 | 0.00 | 50 | 978.3 |
| 20260501213048 | 52 | 360 | 4.0 | 9.0 | 0.00 | 0.00 | 0.00 | 54 | 978.3 |
| 20260501211541 | 53 | 360 | 2.0 | 8.0 | 0.00 | 0.00 | 0.00 | 54 | 978.4 |
| 20260501210039 | 53 | 8 | 0.0 | 6.0 | 0.00 | 0.00 | 0.00 | 54 | 978.5 |
| 20260501204540 | 54 | 7 | 2.0 | 8.0 | 0.00 | 0.00 | 0.00 | 53 | 978.6 |
| 20260501203039 | 53 | 8 | 2.0 | 7.0 | 0.00 | 0.00 | 0.00 | 56 | 978.7 |
| 20260501201545 | 52 | 6 | 1.0 | 6.0 | 0.00 | 0.00 | 0.00 | 57 | 978.6 |
| 20260501200037 | 52 | 360 | 3.0 | 11.0 | 0.00 | 0.00 | 0.00 | 58 | 978.7 |
| 20260501194546 | 52 | 360 | 1.0 | 7.0 | 0.00 | 0.00 | 0.00 | 61 | 978.7 |
| 20260501193035 | 51 | 360 | 3.0 | 9.0 | 0.00 | 0.00 | 0.00 | 56 | 978.6 |
| 20260501191535 | 52 | 360 | 2.0 | 11.0 | 0.00 | 0.00 | 0.00 | 54 | 978.5 |
| 20260501190036 | 52 | 360 | 4.0 | 12.0 | 0.00 | 0.00 | 0.00 | 52 | 978.2 |
| 20260501184534 | 52 | 360 | 3.0 | 9.0 | 0.00 | 0.00 | 0.00 | 51 | 978.1 |
| 20260501183034 | 53 | 6 | 1.0 | 9.0 | 0.00 | 0.00 | 0.00 | 50 | 978.1 |
| 20260501181535 | 52 | 360 | 3.0 | 7.0 | 0.00 | 0.00 | 0.00 | 54 | 978.2 |
| 20260501180037 | 53 | 360 | 7.0 | 13.0 | 0.00 | 0.00 | 0.00 | 48 | 978.1 |
| 20260501174530 | 54 | 6 | 2.0 | 6.0 | 0.00 | 0.00 | 0.00 | 51 | 978.1 |
| 20260501173035 | 53 | 7 | 1.0 | 8.0 | 0.00 | 0.00 | 0.00 | 53 | 978.1 |
| 20260501171531 | 51 | 360 | 2.0 | 10.0 | 0.00 | 0.00 | 0.00 | 59 | 978.2 |
| 20260501170027 | 52 | 360 | 3.0 | 9.0 | 0.00 | 0.00 | 0.00 | 57 | 978.2 |